Hourly Weather Roundup
Issued by NWS Central Illinois

Home | Current Version | Previous Version | Text Only | Print | Product List | Glossary On
Versions: 1 2 3 4 5 6 7 8 9 10 11 12 13 14 15 16 17 18 19 20 21 22 23 24 25 26 27 28 29 30 31 32 33 34 35 36 37 38 39 40 41 42 43 44 45 46 47 48 49 50
000
NZUS43 KILX 181410
HWRILX

Area Weather Roundup
National Weather Service Lincoln IL
800 AM CST SAT NOV 18 2017

NOTE:  "FAIR" indicates few or no clouds below 12,000 feet, with
       no sigificant weather and/or obstructions to visibility.


CITY           SKY/WX    TMP DP  RH WIND       PRES   REMARKS
Bloomington    TSTM      48  46  93 N15       29.37R FOG
Champaign      CLOUDY    59  58  96 S13       29.31F
Danville       RAIN      57  56  96 S8        29.32F
Decatur        CLOUDY    63  59  87 S21G31    29.30F
Effingham      CLOUDY    66  62  86 S14G25    29.38F
Flora          CLOUDY    66  61  84 S24G30    29.39F
Galesburg      RAIN      41  41 100 N23G31    29.48R WCI  32
Jacksonville   CLOUDY    51  50  96 N21G29    29.33R
Lacon          RAIN      42  42 100 N13G20    29.44R
Lawrenceville  CLOUDY    64  58  80 S22       29.44F
Litchfield     CLOUDY    61  59  94 S16       29.32F
$$


CITY           SKY/WX    TMP DP  RH WIND       PRES   REMARKS
Lincoln        LGT RAIN  54  54 100 NE10      29.30R
Macomb         LGT SNOW  42  42  99 N31G39    29.43F WCI  31
Mattoon        CLOUDY    62  58  86 S17G25    29.33F
Mt Carmel AP   CLOUDY    64  59  85 S22G29    29.44F
Olney-Noble AP CLOUDY    63  61  93 S20G28    29.41F
Paris AP       CLOUDY    61  58  91 S23G31    29.35F
Peoria         RAIN      47  46  97 N8G21     29.42R FOG
Pontiac        CLOUDY    48  47  98 N14       29.38R FOG
Rantoul        LGT RAIN  54  54  99 NE8       29.33F
Robinson       CLOUDY    61  58  90 S21G26    29.42F
Springfield    CLOUDY    59  58  96 NW3       29.29F FOG
Taylorville    CLOUDY    62  60  92 S20G28    29.30F
$$

...REGIONAL REPORTS...


CITY           SKY/WX    TMP DP  RH WIND       PRES   REMARKS
Chicago O`Hare LGT RAIN  43  39  86 N16       29.47R
Kankakee       LGT RAIN  47  46  99 NE12G17   29.39F
Moline         LGT RAIN  41  37  86 N7G20     29.53R FOG
Mount Sterling CLOUDY    44  44  97 N25       29.43R
Mount Vernon   LGT RAIN  64  62  93 S23G32    29.42F
Pittsfield     LGT RAIN  52  51  94 NW18G32   29.43R
Quincy         LGT RAIN  44  43  96 N24G30    29.46R FOG     WCI  35
Rockford       LGT RAIN  38  36  92 N16G26    29.55R WCI  29
$$


CITY           SKY/WX    TMP DP  RH WIND       PRES   REMARKS
Burlington     CLOUDY    41  40  96 N21G32    29.50R WCI  32
Cedar Rapids   LGT RAIN  38  37  97 N20G28    29.58F WCI  28
Des Moines     CLOUDY    39  36  89 N16G22    29.68R FOG     WCI  30
Kirksville     HVY RAIN  42  41  96 N22       29.57R FOG     WCI  33
Ottumwa        LGT RAIN  39  37  92 N20       29.60R WCI  29
St Louis       CLOUDY    68  63  84 S12G22    29.33F
$$


CITY           SKY/WX    TMP DP  RH WIND       PRES   REMARKS
Terre Haute    LGT RAIN  62  56  80 S21G31    29.38F
Evansville     LGT RAIN  64  60  87 S17G25    29.53F
Indianapolis   CLOUDY    60  56  86 S16       29.43F
Lafayette      RAIN      54  54 100 NE5       29.37F FOG
Madison        LGT SNOW  32  32 100 N8        29.59F VSB 1   WCI  25
Milwaukee      LGT RAIN  39  37  92 N12       29.55R WCI  32
$$






USA.gov is the U.S. government's official web portal to all federal, state and local government web resources and services.